EW3883 Weather Reports


time (UTC)temp
F
wind
direction
speed
knots
gust
knots
rain 1hr
in
rain 24hr
in
rain mn
in
humidity
%
barometer
mb
20260509024039 58 295 0.9 4.3 0.00 0.00 0.00 86 1011.6
20260509023541 58 262 0.9 4.3 0.00 0.00 0.00 85 1011.7
20260509023045 59 288 0.9 4.3 0.00 0.00 0.00 83 1011.7
20260509022541 59 321 1.7 4.3 0.00 0.00 0.00 80 1011.6
20260509022037 60 42 0.0 2.6 0.00 0.00 0.00 76 1011.5
20260509021553 61 264 0.0 0.9 0.00 0.00 0.00 73 1011.4
20260509021039 61 0 0.0 0.9 0.00 0.00 0.00 71 1011.1
20260509020539 61 0 0.0 0.9 0.00 0.00 0.00 70 1011.0
20260509020052 61 0 0.0 0.0 0.00 0.00 0.00 70 1010.9
20260509015536 61 0 0.0 0.0 0.00 0.00 0.00 69 1011.0
20260509015041 61 0 0.0 0.0 0.00 0.00 0.00 69 1010.9
20260509014545 62 0 0.0 0.0 0.00 0.00 0.00 68 1010.9
20260509014039 62 0 0.0 0.0 0.00 0.00 0.00 67 1010.8
20260509013540 62 0 0.0 0.0 0.00 0.00 0.00 67 1010.8
20260509013055 62 0 0.0 0.0 0.00 0.00 0.00 65 1010.7
20260509012539 62 0 0.0 0.9 0.00 0.00 0.00 64 1010.7
20260509012039 63 0 0.0 1.7 0.00 0.00 0.00 64 1010.7
20260509011548 63 0 0.0 1.7 0.00 0.00 0.00 63 1010.8
20260509011038 63 0 0.0 3.5 0.00 0.00 0.00 63 1010.8
20260509010540 63 195 0.0 3.5 0.00 0.00 0.00 63 1010.8
20260509010044 64 83 0.0 3.5 0.00 0.00 0.00 61 1010.9
20260509005540 64 0 0.0 0.0 0.00 0.00 0.00 63 1011.0
20260509005040 64 0 0.0 0.0 0.00 0.00 0.00 62 1010.8
20260509004543 64 0 0.0 0.0 0.00 0.00 0.00 61 1010.7
20260509004039 64 0 0.0 0.0 0.00 0.00 0.00 60 1010.6
20260509003540 64 0 0.0 0.0 0.00 0.00 0.00 59 1010.6
20260509003052 64 0 0.0 0.0 0.00 0.00 0.00 59 1010.6
20260509002539 65 0 0.0 0.0 0.00 0.00 0.00 58 1010.5
20260509002039 65 0 0.0 0.0 0.00 0.00 0.00 58 1010.4
20260509001550 65 0 0.0 0.0 0.00 0.00 0.00 59 1010.6
20260509001038 65 0 0.0 0.9 0.00 0.00 0.00 58 1010.5
20260509000543 65 0 0.0 0.9 0.00 0.00 0.00 57 1010.6
20260509000048 65 0 0.0 0.0 0.00 0.00 0.00 57 1010.6
20260508235540 65 0 0.0 0.9 0.00 0.00 0.00 57 1010.8
20260508235041 65 0 0.0 0.9 0.00 0.00 0.00 57 1010.6
20260508234545 66 23 0.0 0.0 0.00 0.00 0.00 57 1010.6
20260508234043 66 0 0.0 0.0 0.00 0.00 0.00 57 1010.6
20260508233539 66 0 0.0 0.0 0.00 0.00 0.00 57 1010.5
20260508233114 66 0 0.0 0.0 0.00 0.00 0.00 55 1010.5
20260508232537 66 0 0.0 0.9 0.00 0.00 0.00 56 1010.4
20260508232038 66 0 0.0 0.9 0.00 0.00 0.00 55 1010.5
20260508231552 66 359 0.0 0.0 0.00 0.00 0.00 52 1010.6
20260508231040 66 0 0.0 1.7 0.00 0.00 0.00 54 1010.7
20260508230542 66 0 0.0 1.7 0.00 0.00 0.00 53 1010.6
20260508230056 67 0 0.0 1.7 0.00 0.00 0.00 52 1010.6
20260508225539 67 337 0.0 0.9 0.00 0.00 0.00 53 1010.5
20260508225040 67 77 0.0 0.9 0.00 0.00 0.00 53 1010.5
20260508224605 67 0 0.0 0.9 0.00 0.00 0.00 52 1010.5
20260508224040 67 0 0.0 0.9 0.00 0.00 0.00 51 1010.4
20260508223539 67 0 0.0 0.9 0.00 0.00 0.00 52 1010.4
20260508223047 68 0 0.0 0.9 0.00 0.00 0.00 51 1010.4
20260508222539 68 0 0.0 0.9 0.00 0.00 0.00 52 1010.4
20260508222039 68 0 0.0 0.9 0.00 0.00 0.00 51 1010.4
20260508221549 68 0 0.0 0.9 0.00 0.00 0.00 50 1010.5
20260508221039 68 0 0.0 0.9 0.00 0.00 0.00 49 1010.3
20260508220538 68 0 0.0 0.9 0.00 0.00 0.00 52 1010.4
20260508220057 68 0 0.0 1.7 0.00 0.00 0.00 52 1010.4
20260508215539 69 131 0.0 1.7 0.00 0.00 0.00 50 1010.3
20260508215040 69 122 0.0 1.7 0.00 0.00 0.00 51 1010.2
20260508214551 69 0 0.0 0.9 0.00 0.00 0.00 49 1010.3
20260508214042 69 0 0.0 0.9 0.00 0.00 0.00 50 1010.3
20260508213543 69 349 0.0 0.9 0.00 0.00 0.00 49 1010.3
20260508213047 69 0 0.0 0.9 0.00 0.00 0.00 48 1010.5
20260508212542 69 0 0.0 1.7 0.00 0.00 0.00 48 1010.5
20260508212039 69 0 0.0 1.7 0.00 0.00 0.00 48 1010.4
20260508211548 69 0 0.0 1.7 0.00 0.00 0.00 48 1010.5
20260508211039 69 0 0.0 2.6 0.00 0.00 0.00 45 1010.6
20260508210539 69 328 0.0 2.6 0.00 0.00 0.00 47 1010.6
20260508210050 69 0 0.0 0.9 0.00 0.00 0.00 50 1010.6
20260508205538 69 0 0.0 2.6 0.00 0.00 0.00 49 1010.8
20260508205041 69 0 0.0 2.6 0.00 0.00 0.00 49 1010.9
20260508204553 69 0 0.0 3.5 0.00 0.00 0.00 49 1011.0
20260508204038 69 356 0.0 3.5 0.00 0.00 0.00 48 1011.2
20260508203538 69 0 0.0 1.7 0.00 0.00 0.00 48 1011.3
20260508203056 69 0 0.0 4.3 0.00 0.00 0.00 49 1011.3
20260508202539 69 95 0.9 4.3 0.00 0.00 0.00 47 1011.4
20260508202038 70 0 0.0 1.7 0.00 0.00 0.00 46 1011.5
20260508201552 70 0 0.0 1.7 0.00 0.00 0.00 48 1011.6
20260508201039 70 0 0.0 1.7 0.00 0.00 0.00 49 1011.5
20260508200540 70 86 0.0 0.9 0.00 0.00 0.00 50 1011.6
20260508200105 69 0 0.0 2.6 0.00 0.00 0.00 49 1011.6
20260508195540 69 120 0.0 2.6 0.00 0.00 0.00 48 1011.6
20260508195041 69 0 0.0 1.7 0.00 0.00 0.00 47 1011.8
20260508194553 69 0 0.0 1.7 0.00 0.00 0.00 45 1011.8
20260508194040 69 114 0.0 3.5 0.00 0.00 0.00 46 1011.8
20260508193539 69 58 0.0 4.3 0.00 0.00 0.00 45 1011.9
20260508193101 70 0 0.0 4.3 0.00 0.00 0.00 46 1011.9
20260508192540 71 103 0.0 2.6 0.00 0.00 0.00 45 1011.9
20260508192040 71 0 0.0 2.6 0.00 0.00 0.00 45 1011.8
20260508191552 72 129 0.0 1.7 0.00 0.00 0.00 44 1011.9
20260508191039 72 120 0.0 4.3 0.00 0.00 0.00 45 1011.9
20260508190542 72 0 0.0 4.3 0.00 0.00 0.00 44 1012.1
20260508190043 74 131 0.9 4.3 0.00 0.00 0.00 42 1012.1
20260508185542 74 0 0.0 3.5 0.00 0.00 0.00 41 1012.1
20260508185042 75 0 0.0 2.6 0.00 0.00 0.00 47 1012.2
20260508184549 74 122 0.0 1.7 0.00 0.00 0.00 50 1012.2
20260508184039 74 0 0.0 3.5 0.00 0.00 0.00 47 1012.3
20260508183538 73 0 0.0 3.5 0.00 0.00 0.00 46 1012.3
20260508183052 73 0 0.0 3.5 0.00 0.00 0.00 48 1012.3
20260508182543 72 0 0.0 1.7 0.00 0.00 0.00 50 1012.7
20260508182039 71 141 0.0 1.7 0.00 0.00 0.00 46 1012.8
20260508181551 72 0 0.0 1.7 0.00 0.00 0.00 44 1012.8
20260508181040 72 0 0.0 1.7 0.00 0.00 0.00 44 1013.0
20260508180542 72 0 0.0 0.9 0.00 0.00 0.00 48 1013.0
20260508180046 72 0 0.0 1.7 0.00 0.00 0.00 48 1013.0
20260508175540 73 188 0.0 2.6 0.00 0.00 0.00 46 1013.1
20260508175039 73 0 0.0 2.6 0.00 0.00 0.00 48 1013.1
20260508174605 72 60 0.0 2.6 0.00 0.00 0.00 51 1013.1
20260508174038 72 132 0.0 2.6 0.00 0.00 0.00 49 1013.3
20260508173539 72 105 0.0 1.7 0.00 0.00 0.00 47 1013.4
20260508173046 72 330 0.0 1.7 0.00 0.00 0.00 46 1013.6
20260508172538 72 0 0.0 2.6 0.00 0.00 0.00 50 1013.6
20260508172038 72 0 0.0 3.5 0.00 0.00 0.00 49 1013.6
20260508171551 71 119 0.0 3.5 0.00 0.00 0.00 48 1013.8
20260508171040 72 85 0.0 3.5 0.00 0.00 0.00 48 1013.9
20260508170539 72 101 0.0 1.7 0.00 0.00 0.00 49 1014.2
20260508170052 72 140 0.0 1.7 0.00 0.00 0.00 46 1014.1
20260508165540 73 115 0.0 1.7 0.00 0.00 0.00 50 1014.3
20260508165035 72 0 0.0 1.7 0.00 0.00 0.00 52 1014.4
20260508164553 72 117 0.0 2.6 0.00 0.00 0.00 51 1014.4
20260508164035 72 77 0.9 2.6 0.00 0.00 0.00 49 1014.7
20260508163534 72 0 0.0 2.6 0.00 0.00 0.00 51 1014.6
20260508163051 72 108 0.9 2.6 0.00 0.00 0.00 51 1014.8
20260508162537 72 72 0.0 2.6 0.00 0.00 0.00 56 1014.8
20260508162036 71 119 0.0 2.6 0.00 0.00 0.00 51 1014.9
20260508161551 71 54 0.0 2.6 0.00 0.00 0.00 54 1015.0
20260508161036 71 0 0.0 2.6 0.00 0.00 0.00 51 1015.0
20260508160535 71 342 0.0 1.7 0.00 0.00 0.00 49 1015.1
20260508160055 71 130 0.0 1.7 0.00 0.00 0.00 52 1015.0
20260508155537 70 38 0.0 1.7 0.00 0.00 0.00 55 1015.1
20260508155035 70 131 0.0 1.7 0.00 0.00 0.00 54 1015.1
20260508154551 70 0 0.0 1.7 0.00 0.00 0.00 52 1015.2
20260508154035 70 0 0.0 2.6 0.00 0.00 0.00 53 1015.1
20260508153535 69 0 0.0 2.6 0.00 0.00 0.00 52 1015.3
20260508153055 69 0 0.0 2.6 0.00 0.00 0.00 52 1015.4
20260508152535 69 323 0.0 1.7 0.00 0.00 0.00 53 1015.6
20260508152038 69 0 0.0 1.7 0.00 0.00 0.00 56 1015.6
20260508151545 68 0 0.0 1.7 0.00 0.00 0.00 57 1015.7
20260508151035 68 96 0.0 1.7 0.00 0.00 0.00 56 1015.7
20260508150537 68 0 0.0 1.7 0.00 0.00 0.00 54 1015.7
20260508150053 67 118 0.0 0.9 0.00 0.00 0.00 55 1015.7
20260508145536 67 336 0.0 0.9 0.00 0.00 0.00 56 1015.7
20260508145038 67 134 0.0 1.7 0.00 0.00 0.00 58 1015.9
20260508144552 66 0 0.0 1.7 0.00 0.00 0.00 57 1015.9
20260508144036 66 78 0.0 1.7 0.00 0.00 0.00 54 1016.0
20260508143539 65 122 0.0 2.6 0.00 0.00 0.00 58 1015.8
20260508143057 65 0 0.0 2.6 0.00 0.00 0.00 57 1015.8
20260508142538 64 25 0.0 2.6 0.00 0.00 0.00 57 1016.0
20260508142036 63 0 0.0 2.6 0.00 0.00 0.00 60 1015.9
20260508141550 63 0 0.0 1.7 0.00 0.00 0.00 60 1016.0
20260508141035 62 0 0.0 0.9 0.00 0.00 0.00 60 1016.0
20260508140536 62 0 0.0 0.9 0.00 0.00 0.00 60 1016.0
20260508140059 61 0 0.0 2.6 0.00 0.00 0.00 61 1016.0
20260508135538 61 0 0.0 2.6 0.00 0.00 0.00 62 1016.1
20260508135036 60 0 0.0 2.6 0.00 0.00 0.00 61 1016.1
20260508134550 60 99 0.0 2.6 0.00 0.00 0.00 64 1016.2
20260508134038 59 117 0.0 1.7 0.00 0.00 0.00 65 1016.0
20260508133541 59 0 0.0 0.9 0.00 0.00 0.00 64 1016.0
20260508133056 58 0 0.0 0.9 0.00 0.00 0.00 66 1016.2
20260508132538 58 0 0.0 0.9 0.00 0.00 0.00 65 1016.2
20260508132038 57 140 0.0 0.9 0.00 0.00 0.00 67 1016.1
20260508131555 57 0 0.0 0.9 0.00 0.00 0.00 66 1016.2
20260508131038 56 122 0.0 0.9 0.00 0.00 0.00 66 1016.1
20260508130539 56 0 0.0 0.9 0.00 0.00 0.00 69 1016.2
20260508130103 55 0 0.0 0.9 0.00 0.00 0.00 69 1016.1
20260508125539 55 0 0.0 0.9 0.00 0.00 0.00 70 1016.0
20260508125039 54 0 0.0 0.9 0.00 0.00 0.00 70 1016.1
20260508124552 53 0 0.0 0.9 0.00 0.00 0.00 73 1016.0
20260508124043 53 0 0.0 0.9 0.00 0.00 0.00 72 1016.0
20260508123540 52 0 0.0 0.9 0.00 0.00 0.00 72 1016.1
20260508123057 52 0 0.0 0.9 0.00 0.00 0.00 73 1016.0
20260508122539 51 0 0.0 0.9 0.00 0.00 0.00 74 1016.0
20260508122039 51 129 0.0 0.9 0.00 0.00 0.00 74 1015.9
20260508121557 50 120 0.0 0.9 0.00 0.00 0.00 73 1015.9
20260508121041 50 0 0.0 0.9 0.00 0.00 0.00 75 1015.9
20260508120538 49 0 0.0 0.9 0.00 0.00 0.00 76 1016.0
20260508120054 49 0 0.0 0.0 0.00 0.00 0.00 78 1016.0
20260508115540 48 0 0.0 0.0 0.00 0.00 0.00 78 1016.0
20260508115038 48 0 0.0 0.0 0.00 0.00 0.00 78 1015.8
20260508114552 47 0 0.0 0.0 0.00 0.00 0.00 79 1015.9
20260508114039 47 0 0.0 0.0 0.00 0.00 0.00 78 1015.8
20260508113540 47 0 0.0 0.9 0.00 0.00 0.00 79 1015.7
20260508113047 46 0 0.0 0.9 0.00 0.00 0.00 79 1015.6
20260508112539 46 0 0.0 0.9 0.00 0.00 0.00 79 1015.5
20260508112038 46 0 0.0 0.9 0.00 0.00 0.00 79 1015.5
20260508111553 46 0 0.0 0.9 0.00 0.00 0.00 79 1015.5
20260508111042 46 0 0.0 0.0 0.00 0.00 0.00 78 1015.5
20260508110538 46 0 0.0 0.0 0.00 0.00 0.00 78 1015.6
20260508110055 46 0 0.0 0.0 0.00 0.00 0.00 77 1015.5
20260508105538 47 0 0.0 0.9 0.00 0.00 0.00 77 1015.4
20260508105041 47 0 0.0 0.9 0.00 0.00 0.00 77 1015.3
20260508104558 47 0 0.0 0.9 0.00 0.00 0.00 77 1015.3
20260508104040 47 0 0.0 0.0 0.00 0.00 0.00 77 1015.3
20260508103539 47 0 0.0 0.0 0.00 0.00 0.00 78 1015.4
20260508103050 47 0 0.0 0.0 0.00 0.00 0.00 78 1015.4
20260508102540 47 0 0.0 0.0 0.00 0.00 0.00 78 1015.4
20260508102040 46 0 0.0 0.0 0.00 0.00 0.00 78 1015.5
20260508101554 46 0 0.0 0.0 0.00 0.00 0.00 79 1015.4
20260508101040 46 0 0.0 0.0 0.00 0.00 0.00 80 1015.4
20260508100538 46 0 0.0 0.0 0.00 0.00 0.00 79 1015.5
20260508100051 46 0 0.0 0.0 0.00 0.00 0.00 81 1015.4
20260508095539 46 0 0.0 0.0 0.00 0.00 0.00 80 1015.5
20260508095041 46 0 0.0 0.0 0.00 0.00 0.00 80 1015.5
20260508094548 46 0 0.0 0.0 0.00 0.00 0.00 79 1015.4
20260508094038 46 0 0.0 0.0 0.00 0.00 0.00 79 1015.4
20260508093538 46 0 0.0 0.0 0.00 0.00 0.00 79 1015.5
20260508093055 45 0 0.0 0.0 0.00 0.00 0.00 79 1015.4
20260508092541 45 0 0.0 0.0 0.00 0.00 0.00 79 1015.4
20260508092038 45 0 0.0 0.0 0.00 0.00 0.00 79 1015.3
20260508091559 45 0 0.0 0.0 0.00 0.00 0.00 79 1015.5
20260508091037 44 0 0.0 0.0 0.00 0.00 0.00 78 1015.6
20260508090537 45 0 0.0 0.0 0.00 0.00 0.00 79 1015.5
20260508090108 45 0 0.0 0.0 0.00 0.00 0.00 78 1015.5
20260508085537 45 0 0.0 0.0 0.00 0.00 0.00 77 1015.5
20260508085036 45 0 0.0 0.0 0.00 0.00 0.00 77 1015.5
20260508084553 45 0 0.0 0.0 0.00 0.00 0.00 77 1015.5
20260508084041 45 0 0.0 0.0 0.00 0.00 0.00 76 1015.4
20260508083537 45 0 0.0 0.0 0.00 0.00 0.00 76 1015.3
20260508083045 45 0 0.0 0.0 0.00 0.00 0.00 75 1015.3
20260508082540 46 0 0.0 0.9 0.00 0.00 0.00 75 1015.3
20260508082040 46 0 0.0 0.9 0.00 0.00 0.00 75 1015.2
20260508081606 46 0 0.0 0.0 0.00 0.00 0.00 74 1015.3
20260508081039 46 0 0.0 0.0 0.00 0.00 0.00 74 1015.3
20260508080537 46 0 0.0 0.0 0.00 0.00 0.00 74 1015.3
20260508080051 46 0 0.0 0.0 0.00 0.00 0.00 73 1015.4
20260508075536 46 0 0.0 0.0 0.00 0.00 0.00 74 1015.3
20260508075037 46 0 0.0 0.0 0.00 0.00 0.00 74 1015.3
20260508074548 46 0 0.0 0.9 0.00 0.00 0.00 74 1015.3
20260508074037 46 0 0.0 0.9 0.00 0.00 0.00 74 1015.3
20260508073537 46 0 0.0 0.9 0.00 0.00 0.00 74 1015.3
20260508073048 46 0 0.0 0.9 0.00 0.00 0.00 75 1015.2
20260508072536 46 0 0.0 0.9 0.00 0.00 0.00 75 1015.2
20260508072037 45 0 0.0 0.0 0.00 0.00 0.00 76 1015.3
20260508071555 45 0 0.0 0.0 0.00 0.00 0.00 77 1015.4
20260508071039 45 0 0.0 0.0 0.00 0.00 0.00 77 1015.6
20260508070538 46 0 0.0 0.0 0.00 0.00 0.00 77 1015.5
20260508070058 46 0 0.0 0.0 0.00 0.00 0.00 76 1015.5
20260508065540 46 0 0.0 0.0 0.00 0.00 0.00 76 1015.4
20260508065037 46 0 0.0 0.0 0.00 0.00 0.00 75 1015.6
20260508064550 46 0 0.0 0.0 0.00 0.00 0.00 75 1015.6
20260508064038 46 0 0.0 0.0 0.00 0.00 0.00 75 1015.6
20260508063536 46 0 0.0 0.0 0.00 0.00 0.00 74 1015.7
20260508063043 46 0 0.0 0.0 0.00 0.00 0.00 74 1015.9
20260508062534 46 0 0.0 0.0 0.00 0.00 0.00 74 1016.0
20260508062036 46 0 0.0 0.0 0.00 0.00 0.00 74 1016.0
20260508061545 47 0 0.0 0.0 0.00 0.00 0.00 74 1016.1
20260508061037 47 0 0.0 0.0 0.00 0.00 0.00 74 1016.1
20260508060536 46 0 0.0 0.0 0.00 0.00 0.00 74 1016.2
20260508060052 46 0 0.0 0.0 0.00 0.00 0.00 74 1016.2
20260508055539 46 0 0.0 0.0 0.00 0.00 0.00 75 1016.1
20260508055036 46 0 0.0 0.0 0.00 0.00 0.00 75 1016.2
20260508054551 46 0 0.0 0.0 0.00 0.00 0.00 75 1016.0
20260508054037 46 0 0.0 0.0 0.00 0.00 0.00 75 1016.0
20260508053539 46 0 0.0 0.0 0.00 0.00 0.00 76 1016.0
20260508053052 46 0 0.0 0.0 0.00 0.00 0.00 75 1016.0
20260508052536 46 0 0.0 0.0 0.00 0.00 0.00 75 1016.0
20260508052035 47 0 0.0 0.0 0.00 0.00 0.00 75 1016.0
20260508051547 47 0 0.0 0.0 0.00 0.00 0.00 75 1016.0
20260508051036 47 0 0.0 0.0 0.00 0.00 0.00 75 1015.9
20260508050538 47 0 0.0 0.0 0.00 0.00 0.00 74 1016.0
20260508050043 47 0 0.0 0.0 0.00 0.00 0.00 73 1015.9
20260508045536 47 0 0.0 0.0 0.00 0.00 0.00 73 1015.9
20260508045038 47 0 0.0 0.0 0.00 0.00 0.00 72 1015.9
20260508044546 47 0 0.0 0.0 0.00 0.00 0.00 72 1015.9
20260508044040 48 0 0.0 0.0 0.00 0.00 0.00 72 1016.0
20260508043536 48 0 0.0 0.0 0.00 0.00 0.00 72 1016.0
20260508043044 48 0 0.0 0.0 0.00 0.00 0.00 72 1016.0
20260508042540 48 0 0.0 0.0 0.00 0.00 0.00 71 1016.1
20260508042041 48 0 0.0 0.0 0.00 0.00 0.00 71 1016.0
20260508041551 48 0 0.0 0.0 0.00 0.00 0.00 71 1016.0
20260508041040 48 0 0.0 0.0 0.00 0.00 0.00 71 1016.0
20260508040540 48 0 0.0 0.0 0.00 0.00 0.00 70 1015.9
20260508040059 48 0 0.0 0.0 0.00 0.00 0.00 70 1015.9
20260508035538 48 0 0.0 0.0 0.00 0.00 0.00 70 1015.8
20260508035041 48 0 0.0 0.9 0.00 0.00 0.00 70 1015.8
20260508034555 48 0 0.0 0.9 0.00 0.00 0.00 70 1015.8
20260508034039 48 0 0.0 0.9 0.00 0.00 0.00 69 1016.0
20260508033540 49 0 0.0 0.0 0.00 0.00 0.00 68 1015.9
20260508033109 49 0 0.0 0.0 0.00 0.00 0.00 68 1015.9
20260508032537 49 0 0.0 0.0 0.00 0.00 0.00 67 1015.9
20260508032036 49 0 0.0 0.0 0.00 0.00 0.00 67 1016.1
20260508031542 49 0 0.0 0.9 0.00 0.00 0.00 66 1016.0
20260508031042 49 0 0.0 0.9 0.00 0.00 0.00 66 1016.0
20260508030538 50 0 0.0 0.9 0.00 0.00 0.00 66 1016.0
20260508030101 50 0 0.0 0.9 0.00 0.00 0.00 66 1015.9
20260508025538 50 0 0.0 0.0 0.00 0.00 0.00 66 1015.9
20260508025037 50 0 0.0 0.0 0.00 0.00 0.00 66 1015.9
20260508024616 50 0 0.0 0.0 0.00 0.00 0.00 65 1015.9